Location: Unspecified
(0.0000°N, 0.0000°E)
Time: 05:31:12
(UTC+01:00)

H-2A R/B - Visible Passes

Search period start: 23 January 2017 00:00
Search period end: 02 February 2017 00:00
Orbit: 258 x 33164 km, 27.9° (Epoch: 22 January)

Date Brightness Start Highest point End Pass type
(mag) Time Alt. Az. Time Alt. Az. Time Alt. Az.
23 Jan 5.5 12:34:02 10° NW 20:03:00 51° SE 21:29:17 21° E visible
24 Jan 7.1 18:11:23 10° WSW 19:56:23 36° SW 02:35:01 32° W visible
25 Jan 5.9 13:05:14 10° WNW 20:55:58 58° SSE 21:58:54 33° E visible
26 Jan 7.3 18:52:46 10° WSW 20:32:24 28° SW 03:04:38 21° W visible
27 Jan 6.3 13:36:40 10° WNW 21:52:50 64° SSE 22:28:32 46° E visible
28 Jan 7.5 19:41:22 10° WSW 21:06:37 20° WSW 03:34:17 10° W visible
29 Jan 6.6 14:08:24 10° W 22:41:28 71° SSE 22:58:13 61° ESE visible
30 Jan 10.7 20:54:42 10° WSW 21:39:33 12° WSW 22:39:40 10° WSW visible
31 Jan 6.5 14:40:33 10° W 18:49:14 57° S 23:27:54 76° ESE visible
